Location: Observatoire
(46.1952°N, 5.3391°E)
Time: 15:36:15
(UTC+01:00)

Tiros 1 - Pass Details

Date: 24 February 2026
Orbit: 618 x 650 km, 48.4° (Epoch: 13 March)

Event Time Altitude Azimuth Distance (km) Brightness Sun altitude
Rises 06:25:31 0° 215° (SW) 2,923 10.2 -11.4°
Reaches altitude 10° 06:28:02 10° 205° (SSW) 2,012 9.5 -10.9°
Maximum altitude 06:32:06 31° 144° (SE) 1,118 8.8 -10.2°
Drops below altitude 10° 06:36:08 10° 83° (E) 2,003 11.2 -9.5°
Sets 06:38:38 0° 73° (ENE) 2,907 12.0 -9.1°
